"Pseudo-MPEC" for RdSH237

Created 2023 Dec 2 1:22:07 UT using Find_Orb

Click here for an explanation of pseudo-MPECs

 
 Astrometry: 
     RdSH237*KB2023 11 18?BtB+L*l13!WGQ?=KKBmYAAstrometry_j5rI'=!P\w$X\*OpO*MY89
     RdSH237 KB2023 11 18P\Fn-rjTQ1muFeEredacted;((XQ6w4@9=click6CGs]dAj\hereY89
     RdSH237 KB2023 11 182ygwlcDX.L`b^Y9N0MforHID_Fl#tOA;t$MMkexplanationK?TIY89

Station data:
(Y89) Proxima Centauri Observatory, Valdin  (N42.222443 W6.988110)  Spain.

Orbital elements:  RdSH237
   Perihelion 2028 Feb 18.06365 +/- 1766 TT =  1:31:39 (JD 2461819.56365)
Epoch 2023 Nov 19.0 TT = JDT 2460267.5   Sa: 0.8907              AutoNEOCP
M 317.79974713 +/- 60               (J2000 ecliptic)
n   0.02718976 +/- 0.0649           Peri.  109.48296 +/- 90
a  10.9529817 +/- 17.4              Node    13.80895 +/- 31
e   0.3287803 +/- 0.225             Incl.   19.22606 +/- 46
P  36.25                   H 11.62  G  0.15   U 10.9  SR
q 7.35185637 +/- 3.34    Q 14.5541072 +/- 258
From 3 observations 2023 Nov. 18 (42.7 min); mean residual 0".35
Residuals in arcseconds: 
231118 Y89  .01+  .36+    231118 Y89  .01-  .71-    231118 Y89  .00   .35+    

Ephemerides (geocentric):
Date (UTC) HH   RA             Dec           delta  r     elong  mag " sig PA
---- --------  ------------   ------------  ------ ------ -----  --- --------
2023 12 02 01  02 27 52.887   +26 59 03.62  8.1526 9.0332 151.8 21.3 2066  83
2023 12 02 02  02 27 52.136   +26 59 00.36  8.1528 9.0331 151.7 21.3 2076  83
2023 12 02 03  02 27 51.386   +26 58 57.11  8.1530 9.0331 151.7 21.3 2085  83
2023 12 02 04  02 27 50.636   +26 58 53.85  8.1533 9.0330 151.6 21.3 2095  83
2023 12 02 05  02 27 49.887   +26 58 50.60  8.1535 9.0329 151.6 21.3 2104  83
2023 12 02 06  02 27 49.138   +26 58 47.34  8.1537 9.0328 151.5 21.3 2114  83
2023 12 02 07  02 27 48.390   +26 58 44.09  8.1540 9.0328 151.5 21.3 2123  83
2023 12 02 08  02 27 47.642   +26 58 40.83  8.1542 9.0327 151.5 21.3 2133  83
2023 12 02 09  02 27 46.895   +26 58 37.57  8.1544 9.0326 151.4 21.3 2143  83
2023 12 02 10  02 27 46.148   +26 58 34.32  8.1547 9.0325 151.4 21.3 2152  83
2023 12 02 11  02 27 45.402   +26 58 31.06  8.1549 9.0325 151.3 21.3 2162  83
2023 12 02 12  02 27 44.656   +26 58 27.80  8.1552 9.0324 151.3 21.3 2172  83
2023 12 02 13  02 27 43.911   +26 58 24.54  8.1554 9.0323 151.3 21.3 2181  83
2023 12 02 14  02 27 43.167   +26 58 21.28  8.1556 9.0323 151.2 21.3 2191  83
2023 12 02 15  02 27 42.423   +26 58 18.02  8.1559 9.0322 151.2 21.3 2201  83
2023 12 02 16  02 27 41.679   +26 58 14.76  8.1561 9.0321 151.1 21.3 2211  83
2023 12 02 17  02 27 40.936   +26 58 11.50  8.1564 9.0320 151.1 21.3 2220  83
2023 12 02 18  02 27 40.194   +26 58 08.24  8.1566 9.0320 151.1 21.3 2230  83
2023 12 02 19  02 27 39.452   +26 58 04.98  8.1568 9.0319 151.0 21.3 2240  83
2023 12 02 20  02 27 38.710   +26 58 01.72  8.1571 9.0318 151.0 21.3 2250  83
2023 12 02 21  02 27 37.970   +26 57 58.46  8.1573 9.0317 150.9 21.3 2260  83
2023 12 02 22  02 27 37.229   +26 57 55.20  8.1576 9.0317 150.9 21.3 2270  83
2023 12 02 23  02 27 36.490   +26 57 51.93  8.1578 9.0316 150.8 21.3 2280  83
2023 12 03 00  02 27 35.750   +26 57 48.67  8.1581 9.0315 150.8 21.3 2290  83
2023 12 03 01  02 27 35.012   +26 57 45.41  8.1583 9.0315 150.8 21.3 2299  83
2023 12 03 02  02 27 34.274   +26 57 42.14  8.1585 9.0314 150.7 21.3 2309  83
2023 12 03 03  02 27 33.536   +26 57 38.88  8.1588 9.0313 150.7 21.3 2320  83
2023 12 03 04  02 27 32.799   +26 57 35.61  8.1590 9.0312 150.6 21.3 2330  83
2023 12 03 05  02 27 32.062   +26 57 32.35  8.1593 9.0312 150.6 21.3 2340  83
2023 12 03 06  02 27 31.326   +26 57 29.08  8.1595 9.0311 150.6 21.3 2350  83
2023 12 03 07  02 27 30.591   +26 57 25.82  8.1598 9.0310 150.5 21.3 2360  83
2023 12 03 08  02 27 29.856   +26 57 22.55  8.1600 9.0309 150.5 21.3 2370  83
2023 12 03 09  02 27 29.122   +26 57 19.28  8.1603 9.0309 150.4 21.3 2380  83
2023 12 03 10  02 27 28.388   +26 57 16.01  8.1605 9.0308 150.4 21.3 2390  83
2023 12 03 11  02 27 27.655   +26 57 12.75  8.1608 9.0307 150.4 21.3 2401  83
2023 12 03 12  02 27 26.922   +26 57 09.48  8.1610 9.0307 150.3 21.3 2411  83
2023 12 03 13  02 27 26.190   +26 57 06.21  8.1613 9.0306 150.3 21.3 2421  83
2023 12 03 14  02 27 25.458   +26 57 02.94  8.1615 9.0305 150.2 21.3 2431  83
2023 12 03 15  02 27 24.727   +26 56 59.67  8.1618 9.0304 150.2 21.3 2442  83
2023 12 03 16  02 27 23.997   +26 56 56.41  8.1620 9.0304 150.1 21.3 2452  83
2023 12 03 17  02 27 23.267   +26 56 53.14  8.1623 9.0303 150.1 21.3 2462  83
2023 12 03 18  02 27 22.537   +26 56 49.87  8.1625 9.0302 150.1 21.3 2473  82
2023 12 03 19  02 27 21.808   +26 56 46.60  8.1628 9.0301 150.0 21.3 2483  82
2023 12 03 20  02 27 21.080   +26 56 43.33  8.1630 9.0301 150.0 21.3 2493  82
2023 12 03 21  02 27 20.352   +26 56 40.06  8.1633 9.0300 149.9 21.3 2504  82
2023 12 03 22  02 27 19.625   +26 56 36.78  8.1635 9.0299 149.9 21.3 2514  82
2023 12 03 23  02 27 18.898   +26 56 33.51  8.1638 9.0298 149.9 21.3 2525  82
2023 12 04 00  02 27 18.172   +26 56 30.24  8.1641 9.0298 149.8 21.3 2535  82